FW0689 Weather Reports


Display with metric or nautical units.
time (UTC)temp
F
wind
direction
speed
MPH
gust
MPH
rain 1hr
in
rain 24hr
in
rain mn
in
humidity
%
barometer
mb
20260902062622 57 200 0.0 0.0 0.00 0.00 0.00 42 1023.9
20260902060623 56 135 0.0 0.0 0.00 0.00 0.00 43 1023.8
20260902055620 56 167 0.0 0.0 0.00 0.00 0.00 43 1023.9
20260902054623 56 112 0.0 0.0 0.00 0.00 0.00 43 1023.8
20260902053722 55 112 0.0 0.0 0.00 0.00 0.00 43 1024.0
20260902052722 55 180 0.0 0.0 0.00 0.00 0.00 43 1023.8
20260902050722 55 202 0.0 0.0 0.00 0.00 0.00 43 1023.9
20260902045720 54 202 0.0 0.0 0.00 0.00 0.00 43 1023.8
20260902044723 54 135 0.0 0.0 0.00 0.00 0.00 43 1023.7
20260902043722 54 112 0.0 0.0 0.00 0.00 0.00 44 1023.7
20260902042720 54 180 0.0 0.0 0.00 0.00 0.00 44 1023.8
20260902041722 54 112 0.0 0.0 0.00 0.00 0.00 44 1023.8
20260902040722 53 112 0.0 0.0 0.00 0.00 0.00 44 1023.9
20260902034822 53 112 0.0 0.0 0.00 0.00 0.00 44 1024.0
20260902033823 53 112 0.0 0.0 0.00 0.00 0.00 44 1024.0
20260902032824 53 112 0.0 0.0 0.00 0.00 0.00 44 1024.0
20260902031921 53 112 0.0 0.0 0.00 0.00 0.00 44 1024.1
20260902031021 53 112 0.0 0.0 0.00 0.00 0.00 44 1024.2
20260902030022 53 112 0.0 0.0 0.00 0.00 0.00 44 1024.2
20260902025021 53 112 0.0 0.0 0.00 0.00 0.00 44 1024.4
20260902023021 52 112 0.0 0.0 0.00 0.00 0.00 43 1024.4
20260902022022 52 112 0.0 0.0 0.00 0.00 0.00 44 1024.5
20260902021023 52 112 0.0 0.0 0.00 0.00 0.00 43 1024.5
20260902020022 52 112 0.0 0.0 0.00 0.00 0.00 44 1024.5
20260902015023 52 112 0.0 0.0 0.00 0.00 0.00 44 1024.4
20260902014023 52 112 0.0 0.0 0.00 0.00 0.00 44 1024.5
20260902013122 52 112 0.0 0.0 0.00 0.00 0.00 44 1024.5
20260902010321 51 112 0.0 0.0 0.00 0.00 0.00 44 1024.5
20260902005337 51 112 0.0 0.0 0.00 0.00 0.00 44 1024.5
20260902004422 51 112 0.0 0.0 0.00 0.00 0.00 44 1024.7
20260902003521 50 112 0.0 0.0 0.00 0.00 0.00 45 1024.7
20260902002539 50 112 0.0 0.0 0.00 0.00 0.00 43 1024.6
20260902001623 50 112 0.0 0.0 0.00 0.00 0.00 43 1024.6
20260901235622 51 112 0.0 0.0 0.00 0.00 0.00 44 1024.6
20260901234622 51 112 0.0 0.0 0.00 0.00 0.00 44 1024.5
20260901233623 51 112 0.0 0.0 0.00 0.00 0.00 44 1024.7
20260901232722 51 112 0.0 0.0 0.00 0.00 0.00 44 1024.7
20260901230920 51 112 0.0 0.0 0.00 0.00 0.00 44 1025.0
20260901225937 52 112 0.0 0.0 0.00 0.00 0.00 44 1024.9
20260901224923 52 112 0.0 0.0 0.00 0.00 0.00 44 1024.7
20260901223921 52 112 0.0 0.0 0.00 0.00 0.00 44 1024.7
20260901222921 52 112 0.0 0.0 0.00 0.00 0.00 44 1024.7
20260901221920 52 112 0.0 0.0 0.00 0.00 0.00 44 1025.1
20260901220923 52 112 0.0 0.0 0.00 0.00 0.00 44 1025.0
20260901215935 52 337 0.0 0.0 0.00 0.00 0.00 42 1025.3
20260901214934 52 337 0.0 0.0 0.00 0.00 0.00 43 1025.3
20260901214033 52 337 0.0 0.0 0.00 0.00 0.00 43 1025.3
20260901213035 52 337 0.0 0.0 0.00 0.00 0.00 43 1025.5
20260901212050 52 337 0.0 0.0 0.00 0.00 0.00 43 1025.4
20260901210131 53 337 0.0 0.0 0.00 0.00 0.00 43 1025.6
20260901204132 53 67 0.0 0.0 0.00 0.00 0.00 43 1025.3
20260901202132 54 67 0.0 0.0 0.00 0.00 0.00 43 1025.2
20260901201132 54 67 0.0 0.0 0.00 0.00 0.00 42 1025.0
20260901200134 54 67 0.0 0.0 0.00 0.00 0.00 41 1025.0
20260901195134 55 67 0.0 0.0 0.00 0.00 0.00 42 1024.9
20260901194231 55 67 0.0 0.0 0.00 0.00 0.00 42 1024.9
20260901193233 55 67 0.0 0.0 0.00 0.00 0.00 42 1025.0
20260901192234 55 295 0.0 0.0 0.00 0.00 0.00 42 1025.0
20260901190332 57 270 0.0 0.0 0.00 0.00 0.00 41 1025.1
20260901185332 58 292 0.0 0.0 0.00 0.00 0.00 41 1025.0
20260901184332 58 292 0.0 0.0 0.00 0.00 0.00 41 1025.0
20260901183334 60 292 0.0 0.0 0.00 0.00 0.00 41 1024.9
20260901182335 61 292 0.0 0.0 0.00 0.00 0.00 40 1025.0
20260901181332 62 292 0.0 0.0 0.00 0.00 0.00 40 1024.9
20260901175347 64 300 0.0 0.0 0.00 0.00 0.00 40 1024.9
20260901174431 64 291 0.0 0.0 0.00 0.00 0.00 40 1024.9
20260901173433 64 292 0.0 0.0 0.00 0.00 0.00 39 1024.7
20260901172432 64 291 0.0 0.0 0.00 0.00 0.00 40 1024.7
20260901170434 65 313 0.0 0.0 0.00 0.00 0.00 40 1024.6
20260901164433 65 291 0.0 0.0 0.00 0.00 0.00 40 1024.6
20260901163432 66 288 0.0 0.0 0.00 0.00 0.00 41 1024.4
20260901161432 67 274 0.0 0.0 0.00 0.00 0.00 41 1024.3
20260901160436 67 287 0.0 0.0 0.00 0.00 0.00 41 1024.2
20260901155532 66 266 0.0 0.0 0.00 0.00 0.00 41 1024.2
20260901154631 66 267 0.0 0.0 0.00 0.00 0.00 41 1024.3
20260901153635 66 268 0.0 0.0 0.00 0.00 0.00 42 1024.3
20260901152633 66 266 0.0 0.0 0.00 0.00 0.00 42 1024.3
20260901150631 67 276 0.0 0.0 0.00 0.00 0.00 41 1024.1
20260901145634 67 295 0.0 0.0 0.00 0.00 0.00 43 1024.1
20260901144632 66 304 0.0 0.0 0.00 0.00 0.00 42 1024.0
20260901143634 67 285 0.0 0.0 0.00 0.00 0.00 42 1024.0
20260901142631 67 291 0.0 0.0 0.00 0.00 0.00 41 1023.9
20260901141632 67 296 0.0 0.0 0.00 0.00 0.00 40 1024.1
20260901140731 66 269 0.0 0.0 0.00 0.00 0.00 40 1024.0
20260901135732 65 277 0.0 0.0 0.00 0.00 0.00 41 1024.0
20260901134733 66 277 0.0 0.0 0.00 0.00 0.00 40 1024.0
20260901133732 66 291 0.0 0.0 0.00 0.00 0.00 39 1024.0
20260901132733 66 286 0.0 0.0 0.00 0.00 0.00 39 1023.9
20260901131732 66 295 0.0 0.0 0.00 0.00 0.00 40 1023.8
20260901130734 66 291 0.0 0.0 0.00 0.00 0.00 41 1023.8
20260901125733 66 299 0.0 0.0 0.00 0.00 0.00 41 1023.8
20260901124831 67 289 0.0 0.0 0.00 0.00 0.00 40 1023.8
20260901123833 67 280 0.0 0.0 0.00 0.00 0.00 41 1023.7
20260901122833 66 275 0.0 0.0 0.00 0.00 0.00 40 1023.8
20260901121932 67 282 0.0 0.0 0.00 0.00 0.00 39 1023.8
20260901120034 67 289 0.0 0.0 0.00 0.00 0.00 39 1023.7
20260901115031 66 311 0.0 0.0 0.00 0.00 0.00 40 1023.6
20260901114032 67 279 0.0 0.0 0.00 0.00 0.00 40 1023.6
20260901113131 66 281 0.0 0.0 0.00 0.00 0.00 39 1023.4
20260901112133 66 263 0.0 0.0 0.00 0.00 0.00 39 1023.7
20260901111133 67 295 0.0 0.0 0.00 0.00 0.00 39 1023.5
20260901110131 67 270 0.0 0.0 0.00 0.00 0.00 39 1023.6
20260901105133 67 276 0.0 0.0 0.00 0.00 0.00 39 1023.6
20260901104231 67 308 0.0 0.0 0.00 0.00 0.00 39 1023.5
20260901102234 65 268 0.0 0.0 0.00 0.00 0.00 40 1023.6
20260901100334 66 264 0.0 0.0 0.00 0.00 0.00 39 1023.5
20260901095332 65 256 0.0 0.0 0.00 0.00 0.00 40 1023.5
20260901094333 65 271 0.0 0.0 0.00 0.00 0.00 40 1023.5
20260901093335 65 263 0.0 0.0 0.00 0.00 0.00 40 1023.5
20260901092332 65 269 0.0 0.0 0.00 0.00 0.00 40 1023.5
20260901091331 66 261 0.0 0.0 0.00 0.00 0.00 40 1023.4
20260901090348 66 247 0.0 0.0 0.00 0.00 0.00 40 1023.2
20260901084335 66 242 0.0 0.0 0.00 0.00 0.00 38 1023.1
20260901080531 64 236 0.0 0.0 0.00 0.00 0.00 39 1023.0
20260901075533 64 271 0.0 0.0 0.00 0.00 0.00 39 1022.9
20260901074631 63 239 0.0 0.0 0.00 0.00 0.00 39 1022.8
20260901073633 63 238 0.0 0.0 0.00 0.00 0.00 39 1022.8
20260901071733 63 239 0.0 0.0 0.00 0.00 0.00 40 1022.5
20260901070734 62 225 0.0 0.0 0.00 0.00 0.00 40 1022.5
20260901065733 62 238 0.0 0.0 0.00 0.00 0.00 40 1022.4
20260901064732 62 244 0.0 0.0 0.00 0.00 0.00 40 1022.3
20260901063748 61 237 0.0 0.0 0.00 0.00 0.00 41 1022.3